Tracking 29892 objects as of 21-Nov-2024
HD Live streaming from Space Station
objects crossing your sky now

STARLINK-11103

Track STARLINK-11103 now!
10-day predictions
STARLINK-11103 is classified as:


NORAD ID: 59718
Int'l Code: 2024-088L
Perigee: 366.2 km
Apogee: 367.4 km
Inclination: 53.2 °
Period: 91.7 minutes
Semi major axis: 6737 km
RCS: Unknown
Launch date: May 10, 2024
Source: United States (US)
Launch site: AIR FORCE WESTERN TEST RANGE (AFWTR)
Your satellite tracking list
Your tracking list is empty




NASA's NSSDC Master Catalog

Two Line Element Set (TLE):
1 59718U 24088L   24325.91752591 -.00001298  00000-0 -58535-5 0  9990
2 59718  53.1578 141.5974 0000861 100.1795 259.9320 15.69725743 31744
Source of the keplerian elements: AFSPC